SPACEMOBILE-001

Last updated on Sun Oct 13 2024 00:02:03 GMT+0000 (Coordinated Universal Time)

1 61047U 24163C 24286.20188857 .00006196 00000+0 31926-3 0 9990 2 61047 52.9729 245.3722 0014057 56.9399 303.2941 15.17596009 4523
UTC large
Height (km)
Speed (km/s)
/
Latitude / Longitude
Inclination (degrees)
Orbital Period (minutes)
Azimuth
Elevation
Range (km)
Doppler Factor

Next 0 passes for location: London (51.5072 / 0.1276)

Sorry there are no passes over London.